This demonstration page uses our WeatherBlox Daily Observations layout. Learn more.

Left ArrowRight Arrow

38.88101, -77.10428

Hourly Observations for August 15, 2022

Temp ( °F °C ) Dew Point ( °F °C ) Humidity (%) Winds ( mph kmh ) Pressure ( in mb ) Visibility ( mi km ) Precip ( " mm )
12:52 am 00:52 Cloudy with Light Rain 69 20.6 63 17.2 81 81 SSE 7 11 30.03 1017 10 16 0.04 1.02
1:52 am 01:52 Cloudy 69 20.6 63 17.2 81 81 ESE 5 7 30.01 1016 10 16 0.01 0.25
2:52 am 02:52 Cloudy 69 20.6 64 17.8 84 84 E 8 13 30.00 1016 10 16 0.00 0.00
3:52 am 03:52 Cloudy 69 20.6 63 17.2 81 81 SE 3 6 29.99 1016 10 16 0.00 0.00
4:52 am 04:52 Cloudy 69 20.6 64 17.8 84 84 E 3 6 29.97 1015 10 16 0.00 0.00
5:52 am 05:52 Mostly Cloudy 69 20.6 64 17.8 84 84 Calm 29.97 1015 10 16 0.00 0.00
6:52 am 06:52 Cloudy 70 21.1 64 17.8 81 81 NNE 3 6 29.97 1015 10 16 0.00 0.00
7:52 am 07:52 Cloudy 69 20.6 65 18.3 87 87 ENE 7 11 29.98 1015 10 16 0.01 0.13
8:52 am 08:52 Cloudy 70 21.1 65 18.3 84 84 ENE 7 11 29.99 1016 10 16 0.00 0.00
9:52 am 09:52 Cloudy 72 22.2 65 18.3 79 79 E 5 7 29.99 1016 10 16 0.00 0.00
10:52 am 10:52 Mostly Cloudy 74 23.3 64 17.8 71 71 VRB 3 6 30.00 1016 10 16 0.00 0.00
11:52 am 11:52 Mostly Cloudy 75 23.9 64 17.8 69 69 WSW 3 6 29.98 1015 10 16 0.00 0.00
12:52 pm 12:52 Mostly Cloudy 76 24.4 65 18.3 69 69 Calm 29.98 1015 10 16 0.00 0.00
1:52 pm 13:52 Mostly Cloudy 76 24.4 65 18.3 69 69 S 6 9 29.97 1015 10 16 0.00 0.00
2:52 pm 14:52 Mostly Cloudy 76 24.4 64 17.8 67 67 S 7 11 29.97 1015 10 16 0.00 0.00
3:52 pm 15:52 Cloudy 75 23.9 65 18.3 71 71 WSW 12 19 29.96 1015 10 16 0.01 0.13
4:52 pm 16:52 Cloudy with Light Rain 73 22.8 67 19.4 81 81 VRB 7 11 29.96 1015 9 14 0.01 0.13
6:00 pm 18:00 Cloudy 73 22.8 64 17.8 73 73 W 6 9 29.96 1014 10 16 0.00 0.00
6:48 pm 18:48 Cloudy 73 23 64 18 73 73 NNW 9 15 29.96 1014 10 16 0.00 0.00
6:52 pm 18:52 Cloudy 72 22.2 64 17.8 76 76 NNW 9 15 29.96 1014 10 16 0.00 0.00
7:34 pm 19:34 Mostly Cloudy 71 21.7 63 17.2 76 76 NNW 10 17 29.96 1014 10 16 0.00 0.00
7:52 pm 19:52 Cloudy 71 21.7 62 16.7 73 73 NNW 9 15 29.96 1015 10 16 0.00 0.00
8:52 pm 20:52 Cloudy 70 21.1 63 17.2 78 78 NW 10 17 29.97 1015 10 16 0.00 0.00
9:52 pm 21:52 Cloudy 69 20.6 62 16.7 78 78 NNW 10 17 29.98 1015 10 16 0.00 0.00
10:52 pm 22:52 Mostly Cloudy 68 20 63 17.2 84 84 N 9 15 29.99 1016 10 16 0.01 0.13
11:52 pm 23:52 Mostly Cloudy 67 19.4 61 16.1 81 81 NNW 6 9 29.99 1016 10 16 0.00 0.00

Powered by AerisWeather